Location: Cisewo
(53.3833°N, 14.9000°E)
Time: 13:31:54
(UTC+00:00)

USA 229 - Pass Details

Date: 30 July 2021
Orbit: 956 x 1256 km, 63.5° (Epoch: 08 August)

Event Time Altitude Azimuth Distance (km) Brightness Sun altitude
Rises 21:29:20 0° 312° (NW) 3,922 7.9 -15.3°
Reaches altitude 10° 21:31:56 10° 311° (NW) 3,004 7.1 -15.5°
Maximum altitude 21:39:09 79° 227° (SW) 1,206 3.9 -15.9°
Enters shadow 21:44:35 21° 144° (SE) 2,420 5.0 -16.2°
